Volver al catálogo

THOR ABLESTAR DEB

ActivoLEO
NORAD 351·DEBRIS·🇺🇸 United States

Lanzado Jun 29, 1961 desde Cape Canaveral Space Force Station

Loading…

Próximos Pases (próximas 24 horas)

TLE

ActualizadoSource: Space-Track

Época: Sep 5, 2026, 07:55 UTC

1 00351U 61015DR  26248.33041294  .00004992  00000-0  55531-3 0  9996
2 00351  66.7383 216.4414 0030455 251.2104 108.5719 14.87704265389654

Sigue THOR ABLESTAR DEB en tiempo real con AllMySat

Download on the App Store